Location: Munderkingen
(48.2395°N, 9.6433°E)
Time: 15:41:17
(UTC+02:00)

ISS - Pass Details

Date: 27 March 2017
Orbit: 400 x 409 km, 51.6° (Epoch: 26 April)

Event Time Altitude Azimuth Distance (km) Brightness Sun altitude
Rises 21:44:24 0° 225° (SW) 2,307 0.2 -19.8°
Reaches altitude 10° 21:46:32 10° 218° (SW) 1,454 -0.9 -20.1°
Enters shadow 21:47:25 17° 211° (SSW) 1,118 -1.6 -20.2°
